User: anonymous   Login
Location: Maccacari
(45.1333°N, 11.1333°E)
Time: 05:31:59
(UTC+00:00)
Language:

Cosmos 1437 - Orbit

View from above orbital plane
View from above orbital plane
View from above satellite
View from above satellite

Ground track
Ground track

The orbit data is extracted from the following two-line orbital elements,

1 13770U 83003A   20339.61555663  .00018458  00000-0  16360-3 0  9991
2 13770  81.1570  15.4725 0003259  67.3396 292.8205 15.68427411 83838
Epoch (UTC): 04 December 2020 14:46:24
Eccentricity: 0.0003259
inclination: 81.1570°
perigee height: 361 km
apogee height: 365 km
right ascension of ascending node: 15.4725°
argument of perigee: 67.3396°
revolutions per day: 15.68427411
mean anomaly at epoch: 292.8205°
orbit number at epoch: 8383

The dashed part of the orbit path shows where the satellite is in the earth's shadow,  

DLR